Location: Waco, TX
(31.5480°N, 97.1670°W)
Time: 00:53:14
(UTC-06:00)

ISS - Pass Details

Date: 18 January 2018
Orbit: 402 x 407 km, 51.6° (Epoch: 21 January)

Event Time Altitude Azimuth Distance (km) Brightness Sun altitude
Rises 05:06:13 0° 322° (NW) 2,320 - -29.9°
Reaches altitude 10° 05:08:23 10° 331° (NNW) 1,459 - -29.4°
Maximum altitude 05:11:28 37° 41° (NE) 643 - -28.8°
Exits shadow 05:13:25 18° 101° (E) 1,055 -1.0 -28.3°
Drops below altitude 10° 05:14:32 10° 111° (ESE) 1,455 -0.1 -28.1°
Sets 05:16:41 0° 120° (ESE) 2,313 1.1 -27.6°
